Tracking 30986 objects as of 9-Jul-2025
HD Live streaming from Space Station
objects crossing your sky now

CZ-6A DEB

Track CZ-6A DEB now!
10-day predictions


NORAD ID: 54270
Int'l Code: 2022-151M
Perigee: 832.8 km
Apogee: 954.1 km
Inclination: 98.9 °
Period: 102.7 minutes
Semi major axis: 7264 km
RCS: Unknown
Launch date: November 11, 2022
Source: People's Republic of China (PRC)
Launch site: Taiyaun Space Center, China (TSC)

Note: This is SATELLITE DEBRIS
Your satellite tracking list
Your tracking list is empty




NASA's NSSDC Master Catalog

Two Line Element Set (TLE):
1 54270U 22151M   25189.91089228  .00000225  00000-0  17017-3 0  9991
2 54270  98.8627 181.1356 0083453 271.3406  87.8201 14.02157154135310
Source of the keplerian elements: AFSPC